This is the latest recevied weather packets stored in our database for station/object M0JUI-1. If no packets are shown the sender has not sent any weather packets the latest 10 day(s).
| Time | Temp. | Humidity | Pressure | Rain* | Wind** | Luminosity | Snow |
|---|---|---|---|---|---|---|---|
| 1777723058 | 16.67° C | 99% | 1016.1 hPa | 0 mm | - | 403 W/m² | - |
| 1777722758 | 16.11° C | 99% | 1016.2 hPa | 0 mm | - | 628 W/m² | - |
| 1777722458 | 17.22° C | 99% | 1016.5 hPa | 0 mm | - | 636 W/m² | - |
| 1777722158 | 16.67° C | 99% | 1016.5 hPa | 0 mm | - | 665 W/m² | - |
| 1777721858 | 16.67° C | 99% | 1016.6 hPa | 0 mm | - | 678 W/m² | - |
| 1777721558 | 16.67° C | 99% | 1016.7 hPa | 0 mm | - | 708 W/m² | - |
| 1777721258 | 16.11° C | 99% | 1016.6 hPa | 0 mm | - | 670 W/m² | - |
| 1777720959 | 16.11° C | 99% | 1016.8 hPa | 0 mm | - | 585 W/m² | - |
| 1777720658 | 15.56° C | 99% | 1016.7 hPa | 0 mm | - | 620 W/m² | - |
| 1777720358 | 15.56° C | 99% | 1016.6 hPa | 0 mm | - | 642 W/m² | - |
| 1777720058 | 15.56° C | 99% | 1016.8 hPa | 0 mm | - | 619 W/m² | - |
| 1777719758 | 15° C | 99% | 1017.1 hPa | 0 mm | - | 642 W/m² | - |
| 1777719458 | 15.56° C | 99% | 1017 hPa | 0 mm | - | 608 W/m² | - |
| 1777719158 | 16.11° C | 99% | 1016.9 hPa | 0 mm | - | 623 W/m² | - |
| 1777718859 | 14.44° C | 99% | 1017 hPa | 0 mm | - | 635 W/m² | - |
| 1777718558 | 14.44° C | 99% | 1017 hPa | 0 mm | - | 587 W/m² | - |
| 1777718258 | 13.89° C | 99% | 1017 hPa | 0 mm | - | 528 W/m² | - |
| 1777717958 | 13.89° C | 99% | 1017 hPa | 0 mm | - | 252 W/m² | - |
| 1777717658 | 14.44° C | 99% | 1017.1 hPa | 0 mm | - | 291 W/m² | - |
| 1777717359 | 14.44° C | 99% | 1017 hPa | 0 mm | - | 315 W/m² | - |
| 1777717058 | 14.44° C | 99% | 1016.9 hPa | 0 mm | - | 799 W/m² | - |
| 1777716758 | 13.33° C | 99% | 1017.2 hPa | 0 mm | - | 669 W/m² | - |
| 1777716459 | 13.33° C | 99% | 1017.1 hPa | 0 mm | - | 337 W/m² | - |
| 1777716158 | 12.78° C | 99% | 1017.1 hPa | 0 mm | - | 498 W/m² | - |
| 1777715858 | 12.78° C | 99% | 1017.2 hPa | 0 mm | - | 223 W/m² | - |
* Rain latest hour (hover to see other rain measurements)
** Current wind speed in m/s (hover to see current wind gust speed)